Flag for Lebanon Weather past 2 weeks in Beirut, Lebanon

Now
81 °F

Passing clouds.


Feels Like: 82 °F
Forecast: 68 / 72 °F
Wind: 3 mph from North

Location: Beirut Airport

Current Time: May 28, 2015 at 3:11:00 AM

Latest Report: May 28, 2015 at 2:00 AM


Visibility: N/A

Pressure: 29.74 "Hg

Humidity: 54%

Dew point: 63 °F

Location of BeirutLocation

Historic Weather in Beirut — Graph

°F

Beirut temperature yesterday

Maximum temperature yesterday: 93 °F (at 5:00 PM)
Minimum temperature yesterday: 70 °F (at 4:00 AM)
Average temperature yesterday: 82 °F

Past Weeks' High & Low Weather Summary

 TemperatureHumidityPressure
High104 °F (May 19, 1:00 PM)94% (May 20, 2:00 AM)30.21 "Hg (May 20, 2:00 AM)
Low64 °F (May 14, 9:00 AM)10% (May 19, 9:00 AM)29.68 "Hg (May 27, 8:00 PM)
Average76 °F60%29.95 "Hg
* Reported May 13 2:00 AM — May 28 2:00 AM, Beirut, Weather by CustomWeather, © 2015

Note: Actual official high and low records may vary slightly from our data, if they occured in-between our weather recording intervals... More about our weather records

Advertising

Beirut weather history for previous 24 hours

 ConditionsComfort  
Time TempWeatherWind HumidityBarometerVisibility
2:00 AM
Thu, May 28
81 °FPassing clouds.3 mph54%29.74 "HgN/A
1:00 AM84 °FPassing clouds.6 mph35%29.77 "HgN/A
12:00 AM81 °FPassing clouds.3 mph66%29.77 "HgN/A
11:00 PM
Wed, May 27
82 °FPassing clouds.2 mph55%29.74 "HgN/A
10:00 PM88 °FPassing clouds.1 mph31%29.74 "HgN/A
9:00 PM86 °FPassing clouds.6 mph43%29.71 "Hg5 mi
8:00 PM90 °FPartly sunny.3 mph38%29.68 "Hg5 mi
7:00 PM88 °FPartly sunny.7 mph40%29.71 "HgN/A
6:00 PM88 °FPassing clouds.7 mph40%29.74 "Hg5 mi
5:00 PM93 °FPassing clouds.6 mph30%29.71 "Hg5 mi
4:00 PM91 °FPassing clouds.3 mph28%29.74 "Hg5 mi
3:00 PM90 °FPassing clouds.7 mph31%29.77 "Hg5 mi
2:00 PM91 °FPassing clouds.3 mph34%29.77 "Hg5 mi
1:00 PM84 °FPartly sunny.6 mph43%29.74 "Hg4 mi
12:00 PM86 °FPartly sunny.9 mph40%29.77 "Hg4 mi
11:00 AM88 °FPartly sunny.5 mph31%29.83 "Hg3 mi
10:00 AM79 °FPartly sunny.5 mph61%29.89 "Hg5 mi
9:00 AM84 °FPassing clouds.1 mph33%29.83 "Hg5 mi
8:00 AM75 °FPartly sunny.2 mph54%29.86 "Hg5 mi
7:00 AM73 °FPartly sunny.6 mph65%29.86 "Hg5 mi
6:00 AM72 °FPassing clouds.3 mph65%29.86 "Hg5 mi
5:00 AM72 °FPassing clouds.5 mph83%29.89 "Hg5 mi
4:00 AM70 °FPassing clouds.2 mph78%29.92 "Hg5 mi
3:00 AM72 °FPassing clouds.3 mph78%29.92 "Hg5 mi
Weather by CustomWeather, © 2015

See weather overviewHow to use our weather pages